Theta_e
301 301 301 301 301 302 302 302 302 302 303 303 303 304 308 309 309 310 315 316 317 318 317 325 328 327 326 325 324 327 331 333 334 333 332 331 332 330 331 331 330 331 330 330 330
300 300 300 300 300 300 301 301 301 302 302 302 303 303 304 305 307 312 313 314 315 316 317 321 326 324 327 328 326 328 332 333 333 333 332 332 332 331 331 331 331 331 330 330 330
299 299 299 299 300 300 300 300 300 300 301 301 302 302 303 304 311 314 315 314 313 313 313 318 324 325 325 328 328 329 332 333 333 332 332 333 332 332 332 333 331 331 330 330 330
297 297 298 298 299 299 299 299 300 300 300 300 300 301 302 304 315 319 315 313 312 312 313 314 317 324 326 327 328 332 331 332 332 332 331 333 332 332 332 332 331 330 329 330 329
297 297 297 297 297 298 298 298 299 299 300 300 300 300 301 311 312 313 311 313 314 319 320 316 317 321 328 326 327 330 330 329 330 330 330 330 331 332 332 331 330 330 329 329 329
300 299 299 298 298 298 298 298 298 298 299 299 300 300 308 309 310 311 312 312 314 316 321 318 319 322 325 328 328 327 328 328 328 328 328 330 331 330 331 330 330 329 329 329 328
299 300 301 301 300 300 300 300 299 299 299 299 300 305 308 308 308 309 310 311 311 314 315 320 320 321 323 327 327 327 330 330 330 329 329 328 330 331 329 329 329 329 328 328 328
301 301 301 301 301 301 301 301 301 300 300 300 300 307 309 306 306 307 308 309 310 311 313 315 319 320 322 323 325 327 329 331 330 329 328 328 330 330 329 329 329 328 327 327 327
303 303 302 302 302 302 301 301 301 301 300 302 306 309 309 308 308 308 307 308 310 312 312 313 314 317 320 323 326 328 329 330 329 329 329 329 331 330 328 328 329 328 328 327 327
301 301 301 301 301 301 301 302 307 307 309 310 310 310 310 307 307 310 311 310 311 312 313 314 314 317 320 323 326 327 328 328 328 328 328 329 330 329 328 326 327 328 328 327 327
301 300 300 300 300 300 300 307 308 310 311 311 308 309 308 308 307 307 308 309 312 312 316 316 317 317 319 321 323 324 326 327 328 329 328 328 329 330 328 327 327 327 328 327 326
301 300 300 300 300 300 306 307 307 306 308 306 306 306 306 306 307 306 307 309 311 315 315 317 318 319 318 320 321 322 324 326 327 328 328 329 329 329 329 328 327 327 328 327 327
301 301 300 300 300 308 306 306 306 307 308 307 306 307 308 308 308 308 307 307 310 315 316 316 319 318 318 319 320 322 323 325 326 327 327 327 327 327 328 327 326 326 326 326 327
302 302 300 301 305 306 306 306 306 307 309 308 309 309 309 310 312 310 310 309 309 311 315 316 316 319 319 319 320 322 323 324 325 326 326 325 328 327 327 328 328 327 327 328 327
301 301 300 303 305 306 305 305 306 307 308 308 310 310 309 310 311 313 312 311 310 310 311 315 316 317 319 319 319 321 321 323 324 324 325 324 325 325 326 327 328 329 327 327 326
301 300 301 306 307 306 306 305 306 310 309 308 309 310 310 310 311 310 311 312 312 312 311 313 315 317 317 319 320 320 321 322 324 324 326 325 325 326 327 328 329 329 327 327 328
301 301 305 306 306 306 306 306 310 310 307 308 309 308 309 309 308 310 310 311 314 314 312 312 314 316 318 318 320 321 322 323 325 325 327 324 326 327 328 329 328 329 327 327 330
301 303 307 306 307 307 307 309 310 307 307 307 306 307 306 307 307 307 310 309 311 313 316 312 312 314 317 318 320 321 322 323 326 327 325 325 327 328 329 327 327 327 327 331 333
304 307 307 306 307 306 307 311 307 307 307 307 307 308 308 307 306 307 308 309 312 312 317 319 312 313 316 318 318 321 323 323 324 326 326 329 329 329 329 329 327 328 327 331 333
306 307 308 306 307 308 309 307 307 306 306 307 308 309 308 308 308 308 308 312 311 310 311 317 317 313 317 318 318 320 322 322 325 326 329 328 330 331 329 328 328 330 329 331 334
307 308 308 306 307 307 310 307 306 305 306 308 308 308 308 309 309 309 309 311 310 310 311 314 319 319 315 319 318 319 321 322 324 325 327 329 329 330 330 329 329 331 331 334 335
307 309 305 306 309 309 309 306 305 306 305 306 307 308 309 309 309 309 310 311 309 310 313 314 318 322 319 319 319 319 321 323 326 327 325 328 328 327 328 330 329 331 333 335 334
307 307 307 306 310 308 307 306 306 307 307 306 306 308 309 309 309 309 310 311 309 310 314 315 318 321 324 322 319 319 321 324 325 327 326 327 328 328 329 331 331 333 333 334 333
307 310 307 307 306 307 307 307 307 306 307 307 307 307 308 309 309 310 310 310 309 310 310 311 317 319 326 323 319 320 321 323 325 327 327 326 327 326 329 331 332 333 333 333 333
307 308 306 308 308 306 305 306 308 308 307 306 308 307 308 308 308 309 310 310 309 310 311 313 317 317 319 321 321 320 321 324 325 326 327 326 325 328 331 331 332 333 332 333 333
305 305 305 305 305 305 306 308 307 307 307 307 308 308 308 308 309 309 309 310 311 312 313 313 319 315 318 319 322 321 321 322 324 324 325 325 325 326 329 327 328 328 331 333 333
305 304 305 304 307 306 307 306 306 306 307 307 307 309 309 308 308 307 308 308 309 310 311 312 318 318 321 320 321 321 322 322 322 324 324 323 324 324 325 325 327 328 329 332 333
Wind_Speed
15 16 17 17 17 17 17 18 18 18 18 19 21 23 26 26 26 21 22 18 14 16 18 9 13 18 16 22 27 20 15 17 22 21 16 17 16 12 5 13 17 13 22 23 22
14 15 16 18 19 19 19 19 19 19 19 18 19 21 23 24 25 28 29 26 24 22 20 19 20 19 24 23 28 24 17 24 23 19 16 22 21 20 19 16 21 21 25 23 16
15 15 16 17 19 20 21 21 21 21 19 19 19 18 17 17 19 22 23 26 31 30 26 22 23 23 29 32 30 30 24 23 27 29 24 24 28 26 24 22 25 25 25 23 25
17 17 17 18 18 18 20 21 21 22 21 20 18 18 16 8 10 2 9 17 21 27 31 27 31 34 29 28 34 28 35 33 31 34 33 30 37 36 31 33 30 27 27 25 28
17 17 18 19 19 19 20 20 21 22 21 21 21 19 15 13 21 19 17 8 10 12 25 32 38 39 33 31 33 33 32 39 40 41 44 45 39 35 41 35 34 35 30 27 28
18 18 19 20 20 20 20 20 20 21 21 21 21 21 13 24 14 15 17 17 14 12 17 29 39 39 42 38 34 39 41 41 45 44 45 36 39 38 36 35 39 37 32 32 30
18 18 19 21 22 22 21 20 19 19 19 20 21 17 21 29 16 15 16 19 20 19 19 21 29 36 39 34 44 43 36 35 36 37 33 31 33 36 39 36 37 39 35 35 28
15 16 18 19 20 21 23 23 22 20 19 18 19 13 16 16 21 25 23 26 24 25 24 19 18 32 37 31 32 33 34 30 32 33 36 31 38 28 35 36 35 29 28 25 25
20 21 22 22 22 21 20 20 18 19 16 13 10 12 23 7 15 16 24 24 22 24 24 26 19 25 26 25 22 27 29 36 31 28 26 29 40 29 34 35 35 41 34 23 29
23 24 24 24 25 26 26 18 17 12 6 4 10 9 19 15 7 5 4 11 18 21 26 24 22 19 21 22 27 31 33 30 33 26 26 32 36 31 31 30 33 41 29 29 34
23 25 26 27 28 27 27 20 6 8 12 14 16 16 26 10 13 18 12 12 13 19 25 30 19 27 44 37 33 29 27 31 32 27 29 31 32 25 24 32 32 36 36 29 36
23 24 26 28 27 24 10 13 11 9 15 26 29 33 31 31 30 26 19 17 18 19 21 24 31 46 26 32 31 33 32 33 29 25 23 27 28 27 25 26 32 38 40 34 33
25 25 29 29 22 9 13 13 8 12 11 30 29 25 20 16 26 25 24 28 23 22 24 31 44 25 33 31 32 33 33 29 30 24 22 23 27 30 27 29 34 39 41 39 38
25 26 30 27 12 13 11 9 10 11 7 20 13 9 11 7 9 13 19 25 26 29 23 28 34 32 32 34 34 32 30 27 25 21 20 21 23 26 20 24 24 31 31 30 29
28 28 23 13 12 8 11 10 9 5 6 4 9 6 4 9 1 6 4 15 21 24 24 33 28 33 36 42 32 37 25 26 26 21 23 26 18 18 20 22 22 21 28 32 31
30 24 13 10 6 9 11 9 6 5 5 2 2 10 9 9 11 6 11 14 15 19 28 31 34 27 39 33 28 30 27 25 20 19 20 24 21 22 22 20 22 21 25 24 25
28 14 11 9 10 12 8 8 5 6 2 7 13 7 13 20 15 10 9 13 13 16 21 29 30 28 29 31 35 28 25 16 17 17 22 16 19 23 19 20 19 15 20 15 6
21 9 11 11 13 9 5 5 5 12 12 18 17 19 18 17 20 13 12 15 18 15 19 22 26 34 28 28 36 32 28 17 29 13 18 23 18 13 16 5 8 19 12 9 11
12 6 4 12 8 4 8 5 8 12 15 14 18 16 20 14 19 10 16 13 4 5 6 15 28 29 34 24 26 39 28 35 24 20 14 15 16 19 18 16 8 10 19 14 13
9 5 4 10 8 5 5 8 11 12 12 17 19 11 14 21 9 13 15 4 3 8 5 14 21 29 27 29 33 32 29 22 20 25 19 13 12 8 5 10 12 12 17 17 18
9 4 4 8 5 8 4 10 15 17 15 10 19 20 18 11 12 17 3 6 6 12 9 19 5 20 33 31 31 25 25 29 22 19 14 12 12 7 4 4 14 14 19 20 22
7 3 5 6 5 4 7 17 20 21 17 18 11 16 17 15 13 11 9 5 4 10 10 12 7 15 23 29 31 32 29 31 17 25 18 11 3 4 9 10 13 9 13 21 23
11 4 1 4 4 7 14 18 16 15 16 16 11 13 17 16 10 8 8 8 7 6 4 7 11 13 6 16 30 30 32 27 28 18 19 10 5 7 7 4 5 10 17 22 24
9 4 2 3 7 8 13 15 15 9 18 16 19 6 9 15 11 8 9 2 9 13 16 8 12 18 6 10 22 30 34 30 28 17 18 18 14 13 13 10 7 13 18 22 23
5 6 6 5 9 11 15 17 16 11 9 20 11 10 14 17 17 9 8 10 4 7 5 4 17 23 5 21 27 27 30 27 31 22 17 20 12 12 16 14 11 14 17 19 22
8 7 11 19 9 11 11 14 14 19 9 13 14 20 15 15 16 16 12 9 7 2 5 5 12 19 9 19 27 19 29 25 27 20 19 14 17 10 15 14 11 12 16 18 20
6 7 5 13 8 6 9 14 20 19 11 14 16 17 15 15 20 25 24 20 17 15 11 9 10 3 6 18 24 16 23 28 22 25 17 11 9 11 5 6 4 12 3 17 19
Wind_Direction
337 338 337 336 334 331 328 325 324 319 310 297 287 281 278 277 275 274 262 246 234 240 242 227 209 213 220 230 227 231 255 252 248 251 265 271 247 259 241 286 294 279 294 291 289
329 329 328 328 328 329 327 326 325 322 323 315 304 296 286 283 282 276 257 246 243 239 234 215 220 217 222 228 230 230 237 243 261 265 265 273 283 291 276 261 273 273 284 286 297
324 322 320 321 323 325 325 322 321 319 321 321 322 319 313 296 302 271 255 245 245 240 233 229 232 222 231 229 225 230 241 253 262 269 271 271 273 275 276 273 278 288 291 292 290
329 326 321 317 313 312 314 318 317 314 317 317 316 316 316 305 256 15 249 231 236 239 227 226 230 234 232 234 232 241 240 248 260 264 272 273 276 282 268 271 277 287 285 285 287
336 332 328 323 318 313 308 306 306 310 314 313 312 310 313 254 240 287 289 269 249 256 229 220 222 226 236 232 240 242 245 253 256 261 267 274 277 275 272 269 275 282 282 281 277
341 337 333 330 327 322 317 312 306 302 301 302 303 302 284 264 255 255 253 257 249 244 237 227 231 231 239 240 240 250 256 256 261 260 265 271 270 264 264 262 267 278 275 274 275
342 338 333 331 328 326 324 318 310 301 292 288 285 281 270 256 261 265 264 255 247 247 247 240 239 242 241 249 245 254 258 261 260 264 263 265 267 263 266 266 272 273 271 267 267
345 338 329 326 324 325 323 320 312 300 291 278 272 260 259 266 270 264 258 257 253 244 244 244 251 244 245 258 252 249 253 256 252 252 252 254 259 264 274 270 268 269 263 265 268
345 340 337 333 330 329 322 321 313 301 289 277 267 226 265 268 250 264 243 247 247 243 240 241 245 245 236 241 252 238 245 240 253 251 252 248 258 255 263 268 265 267 266 271 268
344 340 335 333 329 330 325 328 315 296 324 265 243 236 251 256 241 267 232 247 247 236 226 221 224 234 232 221 228 228 239 245 255 253 243 243 256 263 265 265 271 273 260 255 273
342 339 337 333 332 330 327 340 297 247 225 257 285 230 282 252 268 272 270 252 242 232 222 204 208 218 219 218 235 242 246 247 250 250 237 255 270 263 257 263 264 267 266 262 268
340 337 336 332 333 331 354 326 322 303 296 277 269 262 259 264 270 255 250 240 231 229 219 217 218 222 221 230 228 242 249 249 258 258 256 258 262 268 261 263 263 268 271 268 268
339 333 332 330 333 357 320 311 299 312 279 283 267 257 251 237 245 245 235 230 240 224 226 221 226 227 226 230 232 231 236 245 254 262 262 267 270 264 264 265 270 266 269 271 266
336 330 329 326 329 316 322 321 321 317 281 265 196 215 195 231 239 232 234 229 230 237 235 234 238 231 226 231 227 235 228 241 253 259 256 249 266 258 263 264 259 264 265 260 259
340 331 336 342 316 335 313 317 310 292 278 95 126 136 213 222 25 131 236 220 240 237 230 241 229 232 240 226 228 243 236 236 238 248 263 255 259 270 270 267 269 265 259 259 259
342 339 353 5 317 326 316 306 289 239 255 22 43 341 264 218 254 251 256 221 252 241 252 244 246 235 232 243 228 238 235 241 237 240 248 246 252 263 267 269 268 263 255 251 242
345 351 5 355 317 312 305 290 254 262 341 22 338 317 303 293 278 216 262 272 243 214 238 243 247 247 242 220 235 224 222 221 228 228 242 238 243 261 279 276 271 275 249 259 115
347 14 332 340 324 312 302 260 265 352 1 342 337 309 287 283 276 260 252 253 250 286 287 226 227 233 232 227 214 223 212 210 211 216 235 224 243 261 250 266 284 238 244 162 180
1 341 326 336 343 317 288 274 350 354 338 323 317 306 289 284 243 271 260 279 333 14 290 291 236 224 228 223 237 211 217 217 240 238 249 240 216 233 251 252 242 222 194 156 166
354 313 292 341 322 304 275 294 339 356 339 316 308 289 317 316 263 262 270 126 280 276 252 285 277 222 222 217 238 232 210 207 222 243 234 245 216 242 172 206 180 177 178 161 161
343 300 337 341 338 295 295 312 335 335 321 319 313 312 310 318 306 285 253 151 213 290 260 279 263 257 215 207 214 216 211 212 218 227 230 236 240 201 182 214 180 177 160 158 165
308 283 355 345 312 254 292 335 309 301 304 305 322 296 305 312 295 289 278 308 213 296 293 261 289 257 225 218 215 215 214 204 220 213 234 254 158 88 185 200 188 169 134 159 163
309 283 265 358 339 324 324 312 303 328 317 310 303 313 316 311 297 286 340 37 333 317 315 3 237 253 257 249 196 220 209 205 219 222 210 227 153 161 159 125 165 128 150 156 158
310 296 130 308 330 305 324 310 319 329 323 315 305 317 297 311 310 275 335 107 325 275 273 294 260 256 247 243 197 213 203 206 201 217 197 225 120 174 156 143 148 127 148 156 161
327 25 350 300 327 323 301 288 302 335 296 306 301 296 289 316 314 339 325 302 328 256 249 262 247 242 271 294 301 210 206 198 194 206 201 197 193 164 125 104 105 137 156 160 166
335 342 330 299 292 300 308 305 329 330 325 311 323 318 311 298 311 309 304 306 276 328 245 262 273 253 277 274 281 209 213 202 196 199 222 183 193 164 131 129 129 130 171 175 175
324 323 298 294 282 303 301 321 311 312 313 295 301 307 312 315 319 306 299 287 272 288 289 296 280 229 237 257 260 212 202 196 200 195 213 192 196 204 153 142 124 78 120 189 183